Weather Roundup
Issued by NWS Chicago, IL

Home | Current Version | Previous Version | Text Only | Print | Product List | Glossary Off
Versions: 1 2 3 4 5 6 7 8 9 10 11 12 13 14 15 16 17 18 19 20 21 22 23 24 25 26 27 28 29 30 31 32 33 34 35 36 37 38 39 40 41 42 43 44 45 46 47 48 49 50

000
NZUS59 KLOT 240910
HRRLOT

CHICAGO AREA WEATHER ROUNDUP
NATIONAL WEATHER SERVICE CHICAGO/ROMEOVILLE IL
400 AM CDT THU JUL 24 2014

NOTE: "FAIR" INDICATES FEW OR NO CLOUDS BELOW 12,000 FEET WITH NO
SIGNIFICANT WEATHER AND/OR OBSTRUCTIONS TO VISIBILITY.

* THESE STATIONS ARE NOT UNDER NWS QUALITY CONTROL. THEY ALSO MAY NOT
  REPORT WEATHER SUCH AS PRECIPITATION OR FOG.

ILZ005-006-012>014-019>023-241000-
NORTHEAST ILLINOIS

CITY           SKY/WX    TMP DP  RH WIND       PRES   REMARKS
OHARE          CLEAR     58  50  75 N7        30.13S
MIDWAY         CLEAR     61  55  81 NW7       30.12S
AURORA         CLEAR     53  49  86 N7        30.15R
LANSING*       CLEAR     61  55  78 NE3       30.11S
JOLIET*        CLEAR     56  52  84 N7        30.14S
WAUKEGAN       CLEAR     54  51  90 NW5       30.14F
DUPAGE AIRPORT CLEAR     53  50  89 N6        30.14S
WHEELING       CLEAR     57  52  83 N7        30.15S
KANKAKEE*      CLEAR     57  55  92 N3        30.11F
MORRIS*        CLEAR     54  52  92 CALM      30.13R
LEWIS AIRPORT* CLEAR     56  53  91 N8        30.13S
NORTHERLY IS     N/A     61  56  83 MISG        N/A
$$

WIZ051-052-058>065-066-070>072-241000-
SOUTHEAST WISCONSIN

CITY           SKY/WX    TMP DP  RH WIND       PRES   REMARKS
MILWAUKEE      CLEAR     56  50  80 NW3       30.15F
KENOSHA*       CLEAR     54  51  90 N5        30.16S
RACINE*        CLEAR     53  51  93 CALM      30.17S
BURLINGTON     CLEAR     47  47  99 CALM      30.17R
WAUKESHA       CLEAR     50  46  87 CALM      30.18S
WEST BEND      PTCLDY    48  45  87 CALM      30.18R
$$

INZ001>003-010>013-019-020-241000-
NORTHWEST INDIANA

CITY           SKY/WX    TMP DP  RH WIND       PRES   REMARKS
GARY*          CLEAR     64  57  77 NE8       30.12S
MICHIGAN CITY* NOT AVBL
RENSSELAER*    NOT AVBL
VALPARAISO     CLEAR     57  53  86 NE6       30.11S
$$

LMZ740>746-241000-
SOUTHERN LAKE MICHIGAN

STATION/POSITION TIME  SKY/WX   TEMP WIND        PRES    VSBY
                                AIR  DIR/SP/G
                 (UTC)          (F)  (DEG/KT/KT) (MB)    (MI)
HARRISON CRIB    0800            63   30/ 15/ 17   N/A
BURNHAM HARBOR   0900            60  360/  6/ 10   N/A
CALUMET HARBOR   0800            63   10/  8/ 11 1018.6F
BURNS HARBOR     NOT AVBL
MICHIGAN CITY    0900            63   30/ 17/ 18   N/A
$$

ABBREVIATIONS USED IN REMARKS
   TC - TEMPERATURE IN CELSIUS
  WCI - WIND CHILL INDEX
   HX - HEAT INDEX
  VSB - VISIBILITY
$$



USA.gov is the U.S. government's official web portal to all federal, state and local government web resources and services.